AirNav   Pilot Hours Calculator
 
 1325 users online  

KEGT Wellington Municipal Airport
Wellington, Kansas, USA

GOING TO WELLINGTON?


FAA INFORMATION EFFECTIVE 02 JANUARY 2020

Location

FAA Identifier: EGT
Lat/Long: 37-19-29.9846N 097-23-18.0815W
37-19.499743N 097-23.301358W
37.3249957,-97.3883560
(estimated)
Elevation: 1277 ft. / 389.2 m (surveyed)
Variation: 03E (2020)
From city: 3 miles N of WELLINGTON, KS
Time zone: UTC -6 (UTC -5 during Daylight Saving Time)
Zip code: 67152

Airport Operations

Airport use: Open to the public
Activation date: 11/1942
Control tower: no
ARTCC: KANSAS CITY CENTER
FSS: WICHITA FLIGHT SERVICE STATION
NOTAMs facility: ICT (NOTAM-D service available)
Attendance: 0800-1700
Wind indicator: lighted
Segmented circle: no
Lights: ACTVT REIL RWY 18 & 36; HIRL RWY 18/36 - CTAF. PAPI RWY 18 & 36 OPR CONSLY.
Beacon: white-green (lighted land airport)
Operates sunset to sunrise.

Airport Communications

CTAF/UNICOM: 122.8
WX AWOS-3: 118.875 (620-326-2470)
WICHITA APPROACH: 134.85
WICHITA DEPARTURE: 134.85
WX ASOS at WLD (19 nm SE): 118.025 (620-221-9121)
WX ASOS at ICT (20 nm N): PHONE 316-945-8022

Nearby radio navigation aids

VOR radial/distance  VOR name  Freq  Var
ICTr153/26.9WICHITA VORTAC113.8007E
PERr337/36.4PIONEER VORTAC113.2006E
ANYr068/38.7ANTHONY VORTAC112.9007E

Airport Services

Fuel available: 100LL JET-A
AFT HRS CALL (620) 440-2213.
SELF SVC FUEL 100LL AVBL 24 HR WITH CREDIT CARD.
Parking: tiedowns
Airframe service: MAJOR
Powerplant service: MAJOR
Bottled oxygen: NONE
Bulk oxygen: NONE

Runway Information

Runway 18/36

Dimensions: 5201 x 100 ft. / 1585 x 30 m
Surface: concrete, in good condition
Weight bearing capacity: 
Single wheel: 49.0
Double wheel: 60.0
Runway edge lights: high intensity
RUNWAY 18  RUNWAY 36
Latitude: 37-19.928178N37-19.071307N
Longitude: 097-23.306732W097-23.295985W
Elevation: 1276.9 ft.1271.0 ft.
Traffic pattern: leftleft
Runway heading: 176 magnetic, 179 true356 magnetic, 359 true
Markings: nonprecision, in good conditionnonprecision, in good condition
Visual slope indicator: 4-light PAPI on left (3.00 degrees glide path)4-light PAPI on left (3.00 degrees glide path)
Runway end identifier lights: yesyes
Touchdown point: yes, no lightsyes, no lights

Airport Ownership and Management from official FAA records

Ownership: Publicly-owned
Owner: CITY OF WELLINGTON
441 NORTH WEST ROAD
WELLINGTON, KS 67152
Phone (620) 440-2213
Manager: MATTHEW D. WIEBE
441 NORTH WEST ROAD
WELLINGTON, KS 67152
Phone (620) 440-2213

Airport Operational Statistics

Aircraft based on the field: 24
Single engine airplanes: 22
Multi engine airplanes: 2
    
Aircraft operations: avg 50/day *
54% transient general aviation
44% local general aviation
1% commercial
<1% military
* for 12-month period ending 27 August 2018

Additional Remarks

FOR SPECIAL REQS & AFT HRS CALL 620-440-2213.
KEY CODE FOR PILOT LOUNGE 1228
FOR CD CTC WICHITA APCH AT 316-350-1520.

Instrument Procedures

NOTE: All procedures below are presented as PDF files. If you need a reader for these files, you should download the free Adobe Reader.

NOT FOR NAVIGATION. Please procure official charts for flight.
FAA instrument procedures published for use from 02 January 2020 at 0901Z to 30 January 2020 at 0900Z.

 
IAPs - Instrument Approach Procedures
RNAV (GPS) RWY 18   download (242KB)
RNAV (GPS) RWY 36   download (243KB)
VOR RWY 18   download (200KB)
NOTE: Special Take-Off Minimums/Departure Procedures apply   download (259KB)

Other nearby airports with instrument procedures:

KIAB - Mc Connell Air Force Base (19 nm N)
KWLD - Strother Field Airport (19 nm SE)
KICT - Wichita Dwight D Eisenhower National Airport (20 nm N)
KCEA - Cessna Aircraft Field Airport (20 nm N)
KBEC - Beech Factory Airport (24 nm N)
 
Loc | Ops | Rwys | IFR | FBO | Links
Com | Nav | Svcs | Stats | Notes

Kansas City Aviation Department
 
Area around KEGT (Wellington Municipal Airport)
 
Road maps at: MapQuest Bing Google
 
Aerial photo
WARNING: Photo may not be current or correct
Aerial photo of KEGT (Wellington Municipal Airport)
Photo taken 04-Sep-2015
looking east.

Do you have a better or more recent aerial photo of Wellington Municipal Airport that you would like to share? If so, please send us your photo.

 
Sectional chart

 
Airport distance calculator
Flying to Wellington Municipal Airport? Find the distance to fly.

From to KEGT

Sunrise and sunset
Times for 28-Jan-2020
 Local
(UTC-6)
 Zulu
(UTC)
Morning civil twilight07:0913:09
Sunrise07:3713:37
Sunset17:4823:48
Evening civil twilight18:1600:16

Current date and time
Zulu (UTC)  29-Jan-2020 02:29:16
Local (UTC-6)  28-Jan-2020 20:29:16
 
METAR
KIAB 
18nm N 
290156Z 02013KT 6SM -SN BR OVC007 00/M01 A3003 RMK AO2A SNE27PLB27E30SNB30 SLP184 P0001 T10041007
KWLD 
19nm SE 
290154Z AUTO 01013KT 6SM UP BR OVC009 00/M01 A3003 RMK AO2 CIG 007V012 SLP176 P0003 I1001 T00001011
KICT 
20nm N 
290222Z 02012KT 5SM -SN BR SCT007 BKN039 OVC047 00/M02 A3004 RMK AO2 P0001 T00001017
KBEC 
24nm N 
290215Z AUTO 01008KT 3SM -SN OVC005 M01/M01 A3004 RMK AO2 T10071015
K3AU 
26nm NE 
290215Z AUTO 01009G14KT 2 1/2SM -SN BKN006 BKN022 OVC028 00/M01 A3005 RMK AO2
KAAO 
27nm N 
290154Z AUTO 02009KT 2 1/2SM -SN BR BKN006 OVC031 M01/M02 A3004 RMK AO2 SLP186 P0000 T10061017
K1K1 
30nm NE 
290215Z AUTO 02004KT 2SM -SN OVC006 M01/M01 A3005 RMK AO2 T10121015
KBKN 
35nm S 
290215Z AUTO 01010G16KT 7SM -RA OVC008 01/01 A3005 RMK AO2
TAF
KIAB 
18nm N 
282020Z 2820/2924 04010G15KT 4800 -SN OVC007 QNH2996INS TEMPO 2823/2901 1600 -SN OVC002 BECMG 2904/2905 VRB06KT 9999 NSW OVC005 QNH3008INS BECMG 2920/2921 VRB06KT 9999 OVC012 QNH3014INS TX00/2918Z TNM03/2912Z
KICT 
20nm N 
290027Z 2900/2924 02011KT 5SM -SN BR OVC008 TEMPO 2900/2902 2SM -SN BR FM290300 01007KT P6SM VCSH SCT009 OVC020 TEMPO 2903/2906 5SM -SN BR BKN009 FM290600 VRB03KT P6SM BKN009 FM291200 35006KT 4SM BR BKN005 FM291700 VRB03KT P6SM BKN008
NOTAMs
Click for the latest NOTAMs
NOTAMs are issued by the DoD/FAA and will open in a separate window not controlled by AirNav.

 

 
 

FBO, Fuel Providers, and Aircraft Ground Support

  
 Business Name 
 
 Contact 
 
 Services / Description 
 
Fuel Prices
 
Comments
  
 Wellington Municipal Airport
620-440-2213
[web site]
[email]
Airport management, Aviation fuel, Aircraft parking (ramp or tiedown), Hangars, Passenger terminal and lounge, Flight training, Aircraft modifications, Pilot supplies, ...
 
Courtesy car   Enterprise Rent-A-Car  
 
More info about Wellington Municipal Airport
Avfuel
100LL Jet A
AS $4.10 --- 
FS --- $3.70 
 Updated 13-Jan-2020
 
   1 read write
AS=Assisted/Self Service
FS=Full service
Update Fuel Prices
 

Aviation Businesses, Services, and Facilities

  
 Business Name 
 
 Contact 
 
 Services / Description 
 
Distance
 
Comments
  
Air Plains Services 620-326-8904
toll-free 1-800-752-8481
[web site]
[email]
Aircraft maintenance, Avionics sales and service, Aircraft modifications, Aircraft painting, Aircraft interiors, Aircraft cleaning / washing / detailing, Aircraft parts

More info about Air Plains Services
on airport  
   write
 

Would you like to see your business listed on this page?

 If your business provides an interesting product or service to pilots, flight crews, aircraft, or users of the Wellington Municipal Airport, you should consider listing it here.  To start the listing process, click on the button below
 
Add a business
 

Other Pages about Wellington Municipal Airport

cityofwellington.net/municipal-airport
 
Update a link
 
Copyright © AirNav, LLC. All rights reserved. Privacy Policy  Contact